#timestamp,LO_Frequency,Hit,StdDev 
1540306815.6,286046997.6,N
1540306835.4,286046994.9,Y
1540306855.2,286046999.2,P
1540306875.1,286046999.1,N
1540306876.0,286046999.1,N
1540306895.8,286046999.1,N
1540306915.7,286046996.7,Y
1540306935.5,286046998.4,P
1540306955.3,286046997.0,P
1540306975.2,286046997.2,P
1540306995.0,286046997.4,Y
1540306995.9,286046997.4,P
1540307015.8,286046998.6,P
1540307035.6,286046999.8,N
1540307055.4,286047000.7,N
1540307075.3,286047000.2,N
1540307095.1,286047001.0,N
1540307115.8,286047000.3,N
1540307135.7,286046999.9,N
1540307155.5,286047000.1,N
1540307175.4,286047011.9,Y
1540307195.2,286047001.8,P
1540307215.0,286047001.9,N
1540307215.9,286047001.9,N
1540307235.8,286047001.5,N
1540307255.6,286047004.4,Y
1540307275.4,286047001.0,P
1540307295.3,286046998.2,P
1540307315.1,286046998.1,N
1540307335.9,286047001.1,N
1540307355.7,286047001.1,N
1540307375.5,286047000.3,N
1540307395.4,286047001.0,N
1540307415.2,286047001.0,N
1540307435.0,286046998.1,N
1540307436.0,286046998.1,N
1540307455.8,286047001.1,N
1540307475.6,286047000.8,N
1540307495.5,286047000.3,N
1540307515.3,286046998.2,N
1540307535.1,286046999.9,N
1540307555.9,286047001.0,N
1540307575.7,286047000.5,N
1540307595.5,286047001.0,N
1540307615.4,286047001.1,N
1540307635.2,286047000.9,N
1540307655.1,286047000.8,N
1540307656.0,286047000.8,N
1540307675.8,286047000.3,N
1540307695.6,286046999.9,N
1540307715.5,286046999.7,N
1540307735.3,286047000.8,N
1540307755.1,286046999.9,N
1540307775.9,286047002.1,N
1540307795.7,286047001.7,N
1540307815.6,286047001.4,N
1540307835.4,286047001.6,N
1540307855.2,286047001.4,N
1540307875.1,286047001.8,N
1540307876.0,286047001.8,N
1540307895.8,286046999.8,N
1540307915.6,286047000.6,N
1540307935.5,286047000.5,N
1540307955.3,286047002.7,N
1540307975.2,286047000.9,N
1540307995.9,286047001.0,N
1540308015.7,286046998.7,N
1540308035.6,286046998.2,N
1540308055.4,286047001.1,N
1540308075.2,286046998.5,N
1540308095.1,286046999.5,N
1540308096.0,286046999.5,N
1540308115.8,286046998.7,N
1540308135.7,286046998.9,N
1540308155.5,286046999.2,N
1540308175.3,286047000.6,N
1540308195.2,286047000.0,N
1540308215.0,286046998.7,N
1540308215.9,286046998.7,N
1540308235.7,286047001.0,N
1540308255.6,286046998.1,N
1540308275.4,286046998.6,N
1540308295.3,286046998.1,N
1540308315.1,286046998.5,N
1540308335.8,286046998.6,N
1540308355.7,286046998.8,N
1540308375.5,286047000.8,N
1540308395.3,286047000.0,N
1540308415.2,286047002.1,N
1540308435.0,286047002.1,N
1540308435.9,286047002.1,N
1540308455.8,286047002.3,N
1540308475.6,286046998.1,N
1540308495.4,286047000.5,N
1540308515.3,286047001.0,N
1540308535.1,286047000.7,N
1540308555.9,286047000.5,N
1540308575.7,286047000.4,N
1540308595.5,286046999.0,N
1540308615.4,286046998.6,N
1540308635.2,286047001.1,N
1540308655.0,286047000.4,N
1540308655.9,286047000.4,N
1540308675.8,286046998.7,N
1540308695.6,286047000.7,N
1540308715.4,286047001.0,N
1540308735.3,286046998.7,N
1540308755.1,286046999.2,N
1540308775.9,286047000.7,N
1540308795.7,286047001.0,N
1540308815.5,286046998.7,N
1540308835.4,286046998.5,N
1540308855.2,286047000.4,N
1540308875.0,286047000.6,N
1540308876.0,286047000.6,N
1540308895.8,286047000.1,N
1540308915.6,286046999.8,N
1540308935.5,286047000.9,N
1540308955.3,286047000.1,N
1540308975.1,286046999.8,N
1540308995.9,286046999.9,N
1540309015.7,286047000.4,N
1540309035.6,286047000.2,N
1540309055.4,286047002.7,Y
1540309075.2,286046999.8,P
1540309095.1,286047000.9,P
1540309096.0,286047000.9,N
1540309115.8,286047000.9,N
1540309135.6,286047002.4,Y
1540309155.5,286047000.2,P
1540309175.3,286047000.0,N
1540309195.2,286047000.1,N
1540309215.9,286047000.5,N
1540309235.7,286047000.5,N
1540309255.6,286047002.7,Y
1540309275.4,286047000.1,P
1540309295.2,286047000.3,N
1540309315.1,286047002.1,P
1540309316.0,286047002.1,N
1540309335.8,286047001.5,N
1540309355.7,286047002.5,N
1540309375.5,286047002.7,N
1540309395.3,286047002.0,N
1540309415.2,286047005.9,Y
1540309435.0,286047005.9,P
1540309435.9,286047005.9,N
1540309455.8,286047005.8,N
1540309475.6,286047006.7,Y
1540309495.4,286047002.3,P
1540309515.3,286047003.5,N
1540309535.1,286047001.3,N
1540309555.9,286047004.4,Y
1540309575.7,286047000.6,P
1540309595.5,286046999.9,N
1540309615.4,286046999.8,N
1540309635.2,286047001.0,N
1540309655.0,286047002.0,N
1540309655.9,286047002.0,N
1540309675.8,286047002.8,N
1540309695.6,286047002.5,N
1540309715.4,286047001.5,N
1540309735.3,286047003.3,Y
1540309755.1,286047002.1,P
1540309775.9,286047001.4,P
1540309795.7,286047005.9,P
1540309815.5,286047004.2,N
1540309835.4,286047011.9,Y
1540309855.2,286046998.3,P
1540309875.1,286046996.6,N
1540309876.0,286046996.6,N
1540309895.8,286046998.8,N
1540309915.6,286046998.1,N
1540309935.5,286047000.8,N
1540309955.3,286046998.2,N
1540309975.1,286046999.4,N
1540309995.9,286046997.1,N
1540310015.7,286046997.9,N
1540310035.6,286046995.6,N
1540310055.4,286046995.6,N
1540310075.2,286046995.1,N
1540310095.1,286046995.3,N
1540310096.0,286046995.3,N
1540310115.8,286046994.9,N
1540310135.6,286046997.6,N
1540310155.5,286046995.3,N
1540310175.3,286046996.1,N
1540310195.2,286046995.0,N
1540310215.9,286046997.6,N
1540310235.7,286046996.6,N
1540310255.6,286046998.7,N
1540310275.4,286047000.0,N
1540310295.2,286047000.1,N
1540310315.1,286047003.8,N
1540310316.0,286047003.8,N
1540310335.8,286047003.6,N
1540310355.7,286047002.0,N
1540310375.5,286047001.4,N
1540310395.3,286047004.3,N
